TimePDT,TemperatureF,Dew PointF,Humidity,Sea Level PressureIn,VisibilityMPH,Wind Direction,Wind SpeedMPH,Gust SpeedMPH,PrecipitationIn,Events,Conditions,WindDirDegrees,DateUTC
12:22 AM,62.6,55.4,77,29.88,10.0,Calm,Calm,-,N/A,,Scattered Clouds,0,2013-09-17 07:22:00
12:53 AM,63.0,55.0,75,29.88,10.0,Calm,Calm,-,N/A,,Partly Cloudy,0,2013-09-17 07:53:00
1:11 AM,62.6,55.4,77,29.88,10.0,Calm,Calm,-,N/A,,Mostly Cloudy,0,2013-09-17 08:11:00
1:53 AM,63.0,55.0,75,29.88,10.0,Calm,Calm,-,N/A,,Overcast,0,2013-09-17 08:53:00
2:23 AM,62.6,55.4,77,29.88,10.0,Calm,Calm,-,N/A,,Overcast,0,2013-09-17 09:23:00
2:53 AM,63.0,55.0,75,29.86,10.0,ENE,3.5,-,N/A,,Overcast,60,2013-09-17 09:53:00
3:30 AM,62.6,55.4,77,29.87,10.0,Calm,Calm,-,N/A,,Mostly Cloudy,0,2013-09-17 10:30:00
3:53 AM,63.0,55.0,75,29.85,10.0,Calm,Calm,-,N/A,,Overcast,0,2013-09-17 10:53:00
4:53 AM,62.1,55.0,78,29.86,10.0,Calm,Calm,-,N/A,,Overcast,0,2013-09-17 11:53:00
5:53 AM,63.0,55.0,75,29.86,10.0,Calm,Calm,-,N/A,,Overcast,0,2013-09-17 12:53:00
6:53 AM,63.0,55.0,75,29.86,10.0,NNW,4.6,-,N/A,,Overcast,340,2013-09-17 13:53:00
7:53 AM,63.0,55.0,75,29.86,10.0,North,5.8,-,N/A,,Overcast,350,2013-09-17 14:53:00
8:13 AM,62.6,55.4,77,29.87,10.0,NNW,4.6,-,N/A,,Overcast,340,2013-09-17 15:13:00
8:26 AM,62.6,55.4,77,29.87,10.0,NNE,6.9,-,N/A,,Overcast,20,2013-09-17 15:26:00
8:53 AM,60.1,55.0,83,29.90,1.2,NNW,12.7,21.9,0.11,Rain,Heavy Rain,330,2013-09-17 15:53:00
9:01 AM,59.0,53.6,82,29.90,0.8,NW,11.5,20.7,0.11,Rain,Heavy Rain,320,2013-09-17 16:01:00
9:04 AM,59.0,53.6,82,29.90,1.5,NW,11.5,23.0,0.12,Rain,Heavy Rain,310,2013-09-17 16:04:00
9:07 AM,59.0,53.6,82,29.91,3.0,NW,8.1,23.0,0.12,Rain,Rain,320,2013-09-17 16:07:00
9:31 AM,57.2,55.4,94,29.91,6.0,WNW,6.9,-,0.16,Rain-Thunderstorm,Light Rain,290,2013-09-17 16:31:00
9:46 AM,57.2,57.2,100,29.92,7.0,Calm,Calm,-,0.17,Rain,Light Rain,0,2013-09-17 16:46:00
9:53 AM,57.9,57.9,100,29.93,10.0,Calm,Calm,-,0.17,Rain,Light Rain,0,2013-09-17 16:53:00
10:53 AM,57.9,57.9,100,29.94,10.0,Calm,Calm,-,0.00,Rain,Light Rain,0,2013-09-17 17:53:00
11:02 AM,59.0,57.2,94,29.94,10.0,Calm,Calm,-,0.00,Rain,Light Rain,0,2013-09-17 18:02:00
11:44 AM,60.8,59.0,94,29.94,10.0,Calm,Calm,-,0.00,,Overcast,0,2013-09-17 18:44:00
11:53 AM,60.1,57.0,90,29.94,10.0,Calm,Calm,-,0.00,,Overcast,0,2013-09-17 18:53:00
12:06 PM,60.8,57.2,88,29.94,10.0,Calm,Calm,-,N/A,,Overcast,0,2013-09-17 19:06:00
12:53 PM,62.1,54.0,75,29.95,10.0,Variable,6.9,-,N/A,,Overcast,0,2013-09-17 19:53:00
1:01 PM,62.6,53.6,72,29.95,10.0,Calm,Calm,-,N/A,,Overcast,0,2013-09-17 20:01:00
1:09 PM,62.6,53.6,72,29.96,10.0,Variable,4.6,-,N/A,,Overcast,0,2013-09-17 20:09:00
1:21 PM,64.4,53.6,68,29.95,10.0,Calm,Calm,-,N/A,,Mostly Cloudy,0,2013-09-17 20:21:00
1:53 PM,66.0,50.0,56,29.95,10.0,West,6.9,-,N/A,,Scattered Clouds,270,2013-09-17 20:53:00
2:53 PM,64.0,52.0,65,29.96,10.0,West,3.5,-,N/A,,Overcast,270,2013-09-17 21:53:00
3:53 PM,66.9,48.9,52,29.95,10.0,NW,4.6,-,N/A,,Partly Cloudy,310,2013-09-17 22:53:00
4:53 PM,68.0,51.1,55,29.96,10.0,West,8.1,-,N/A,,Mostly Cloudy,260,2013-09-17 23:53:00
5:53 PM,64.9,48.9,56,29.97,10.0,West,8.1,-,N/A,,Clear,270,2013-09-18 00:53:00
6:53 PM,64.9,50.0,58,29.99,10.0,NNW,6.9,-,N/A,,Mostly Cloudy,330,2013-09-18 01:53:00
7:53 PM,62.1,48.9,62,30.01,10.0,NW,6.9,-,N/A,,Scattered Clouds,310,2013-09-18 02:53:00
8:53 PM,61.0,50.0,67,30.05,10.0,Calm,Calm,-,N/A,,Overcast,0,2013-09-18 03:53:00
9:53 PM,60.1,51.1,72,30.06,10.0,Calm,Calm,-,N/A,,Mostly Cloudy,0,2013-09-18 04:53:00
10:53 PM,57.0,51.1,81,30.07,10.0,Calm,Calm,-,N/A,,Scattered Clouds,0,2013-09-18 05:53:00
11:53 PM,55.0,51.1,86,30.07,10.0,Calm,Calm,-,N/A,,Clear,0,2013-09-18 06:53:00